| time (UTC) | temp C | wind direction | speed KPH | gust KPH | rain 1hr cm | rain 24hr cm | rain mn cm | humidity % | barometer mb |
| 20260507063048 | 16 | 209 | 0.0 | 0.0 | 0.00 | 0.00 | 0.00 | 80 | 1017.0 |
| 20260507063002 | 8 | 197 | 4.8 | 8.0 | 0.00 | 0.00 | 0.00 | 68 | 1018.9 |
| 20260507061601 | 8 | 215 | 3.2 | 8.0 | 0.00 | 0.00 | 0.00 | 66 | 1019.0 |
| 20260507061544 | 16 | 209 | 0.0 | 0.0 | 0.00 | 0.00 | 0.00 | 79 | 1016.7 |
| 20260507060100 | 9 | 197 | 4.8 | 11.3 | 0.00 | 0.00 | 0.00 | 65 | 1019.1 |
| 20260507060051 | 16 | 209 | 0.0 | 0.0 | 0.00 | 0.00 | 0.00 | 78 | 1016.8 |
| 20260507054557 | 8 | 188 | 3.2 | 6.4 | 0.00 | 0.05 | 0.00 | 70 | 1019.0 |
| 20260507054548 | 17 | 209 | 0.0 | 0.0 | 0.00 | 0.00 | 0.00 | 77 | 1016.8 |
| 20260507053057 | 8 | 199 | 3.2 | 4.8 | 0.00 | 0.05 | 0.00 | 73 | 1019.1 |
| 20260507053049 | 17 | 209 | 0.0 | 0.0 | 0.00 | 0.00 | 0.00 | 77 | 1016.7 |
| 20260507051559 | 8 | 181 | 1.6 | 4.8 | 0.00 | 0.05 | 0.00 | 74 | 1018.9 |
| 20260507051542 | 17 | 209 | 0.0 | 0.0 | 0.00 | 0.00 | 0.00 | 76 | 1016.7 |
| 20260507050105 | 8 | 204 | 1.6 | 4.8 | 0.00 | 0.05 | 0.00 | 73 | 1019.0 |
| 20260507050041 | 17 | 209 | 0.0 | 0.0 | 0.00 | 0.00 | 0.00 | 76 | 1016.8 |
| 20260507044554 | 17 | 209 | 0.0 | 0.0 | 0.00 | 0.00 | 0.00 | 74 | 1016.7 |
| 20260507043048 | 8 | 185 | 1.6 | 4.8 | 0.00 | 0.08 | 0.05 | 71 | 1019.1 |
| 20260507043040 | 17 | 209 | 0.0 | 0.0 | 0.00 | 0.00 | 0.00 | 73 | 1016.6 |
| 20260507041548 | 8 | 166 | 1.6 | 6.4 | 0.00 | 0.08 | 0.05 | 71 | 1019.0 |
| 20260507041540 | 17 | 209 | 0.0 | 0.0 | 0.00 | 0.00 | 0.00 | 72 | 1016.6 |
| 20260507040050 | 8 | 173 | 1.6 | 4.8 | 0.00 | 0.08 | 0.05 | 72 | 1019.2 |
| 20260507040040 | 18 | 209 | 0.0 | 0.0 | 0.00 | 0.00 | 0.00 | 71 | 1016.3 |
| 20260507034549 | 7 | 205 | 3.2 | 8.0 | 0.00 | 0.08 | 0.05 | 73 | 1019.3 |
| 20260507034542 | 18 | 209 | 0.0 | 0.0 | 0.00 | 0.00 | 0.00 | 70 | 1016.2 |
| 20260507033048 | 7 | 178 | 3.2 | 6.4 | 0.00 | 0.08 | 0.05 | 72 | 1019.4 |
| 20260507033038 | 18 | 209 | 0.0 | 0.0 | 0.00 | 0.00 | 0.00 | 70 | 1016.1 |
| 20260507031546 | 8 | 165 | 3.2 | 8.0 | 0.00 | 0.08 | 0.05 | 72 | 1019.1 |
| 20260507031538 | 18 | 209 | 0.0 | 0.0 | 0.00 | 0.00 | 0.00 | 69 | 1016.0 |
| 20260507030047 | 8 | 197 | 4.8 | 9.7 | 0.00 | 0.08 | 0.05 | 70 | 1019.2 |
| 20260507030038 | 19 | 209 | 0.0 | 0.0 | 0.00 | 0.00 | 0.00 | 67 | 1015.8 |
| 20260507024548 | 8 | 206 | 1.6 | 6.4 | 0.00 | 0.08 | 0.05 | 68 | 1019.1 |
| 20260507024541 | 19 | 207 | 0.0 | 0.0 | 0.00 | 0.00 | 0.00 | 66 | 1015.7 |
| 20260507023045 | 9 | 202 | 3.2 | 8.0 | 0.00 | 0.08 | 0.05 | 65 | 1018.9 |
| 20260507023036 | 20 | 207 | 0.0 | 0.0 | 0.00 | 0.00 | 0.00 | 66 | 1015.5 |
| 20260507021555 | 10 | 359 | 0.0 | 3.2 | 0.00 | 0.08 | 0.05 | 63 | 1018.9 |
| 20260507021536 | 20 | 194 | 0.0 | 0.0 | 0.00 | 0.00 | 0.00 | 66 | 1015.4 |
| 20260507020044 | 10 | 216 | 1.6 | 4.8 | 0.00 | 0.08 | 0.05 | 58 | 1018.7 |
| 20260507014544 | 11 | 209 | 3.2 | 4.8 | 0.00 | 0.08 | 0.05 | 55 | 1018.5 |
| 20260507014536 | 20 | 161 | 0.0 | 0.0 | 0.00 | 0.00 | 0.00 | 67 | 1015.2 |
| 20260507013043 | 12 | 300 | 0.0 | 1.6 | 0.00 | 0.08 | 0.05 | 51 | 1018.4 |
| 20260507013034 | 20 | 146 | 0.0 | 1.6 | 0.00 | 0.00 | 0.00 | 69 | 1015.0 |
| 20260507011545 | 13 | 298 | 0.0 | 0.0 | 0.00 | 0.08 | 0.05 | 43 | 1018.4 |
| 20260507011534 | 20 | 167 | 0.0 | 0.0 | 0.00 | 0.00 | 0.00 | 69 | 1015.0 |
| 20260507010045 | 13 | 298 | 0.0 | 4.8 | 0.00 | 0.08 | 0.05 | 36 | 1018.3 |
| 20260507010037 | 20 | 140 | 0.0 | 0.0 | 0.00 | 0.00 | 0.00 | 68 | 1014.8 |
| 20260507004543 | 14 | 339 | 1.6 | 4.8 | 0.00 | 0.08 | 0.05 | 34 | 1018.4 |
| 20260507004534 | 21 | 163 | 0.0 | 1.6 | 0.00 | 0.00 | 0.00 | 63 | 1014.9 |
| 20260507003041 | 15 | 280 | 1.6 | 6.4 | 0.00 | 0.08 | 0.05 | 33 | 1018.3 |
| 20260507003033 | 21 | 144 | 0.0 | 0.0 | 0.00 | 0.00 | 0.00 | 63 | 1014.9 |
| 20260507001541 | 15 | 301 | 1.6 | 9.7 | 0.00 | 0.08 | 0.05 | 34 | 1018.4 |
| 20260507001538 | 21 | 162 | 0.0 | 0.0 | 0.00 | 0.00 | 0.00 | 63 | 1014.9 |
| 20260507000041 | 15 | 13 | 4.8 | 14.5 | 0.00 | 0.08 | 0.05 | 33 | 1018.3 |
| 20260507000030 | 21 | 132 | 0.0 | 0.0 | 0.00 | 0.00 | 0.00 | 61 | 1014.8 |
| 20260506234550 | 15 | 274 | 1.6 | 8.0 | 0.00 | 0.08 | 0.05 | 33 | 1018.6 |
| 20260506234529 | 21 | 136 | 0.0 | 0.0 | 0.00 | 0.00 | 0.00 | 62 | 1014.9 |
| 20260506233040 | 15 | 8 | 6.4 | 12.9 | 0.00 | 0.08 | 0.05 | 33 | 1018.4 |
| 20260506233031 | 21 | 139 | 0.0 | 0.0 | 0.00 | 0.00 | 0.00 | 63 | 1014.9 |
| 20260506231538 | 15 | 332 | 12.9 | 19.3 | 0.00 | 0.08 | 0.05 | 32 | 1018.5 |
| 20260506231529 | 21 | 148 | 0.0 | 1.6 | 0.00 | 0.00 | 0.00 | 61 | 1015.1 |
| 20260506230038 | 15 | 331 | 8.0 | 17.7 | 0.00 | 0.08 | 0.05 | 34 | 1018.5 |
| 20260506230025 | 21 | 152 | 0.0 | 0.0 | 0.00 | 0.00 | 0.00 | 61 | 1015.1 |
| 20260506224544 | 15 | 322 | 12.9 | 25.7 | 0.00 | 0.08 | 0.05 | 32 | 1018.5 |
| 20260506224524 | 21 | 150 | 0.0 | 0.0 | 0.00 | 0.00 | 0.00 | 61 | 1015.2 |
| 20260506223037 | 15 | 303 | 11.3 | 24.1 | 0.00 | 0.08 | 0.05 | 33 | 1018.6 |
| 20260506223023 | 22 | 210 | 0.0 | 1.6 | 0.00 | 0.00 | 0.00 | 59 | 1015.4 |
| 20260506221536 | 15 | 332 | 6.4 | 20.9 | 0.00 | 0.08 | 0.05 | 32 | 1018.7 |
| 20260506221522 | 22 | 139 | 0.0 | 0.0 | 0.00 | 0.00 | 0.00 | 59 | 1015.4 |
| 20260506220037 | 15 | 354 | 9.7 | 25.7 | 0.00 | 0.08 | 0.05 | 33 | 1018.7 |
| 20260506220020 | 22 | 185 | 0.0 | 1.6 | 0.00 | 0.00 | 0.00 | 57 | 1015.6 |
| 20260506214535 | 15 | 345 | 6.4 | 17.7 | 0.00 | 0.08 | 0.05 | 33 | 1018.8 |
| 20260506214518 | 23 | 173 | 0.0 | 0.0 | 0.00 | 0.00 | 0.00 | 54 | 1015.7 |
| 20260506213034 | 14 | 274 | 8.0 | 22.5 | 0.00 | 0.08 | 0.05 | 34 | 1019.0 |
| 20260506213016 | 22 | 150 | 0.0 | 0.0 | 0.00 | 0.00 | 0.00 | 56 | 1015.8 |
| 20260506211533 | 15 | 335 | 9.7 | 19.3 | 0.00 | 0.08 | 0.05 | 32 | 1019.1 |
| 20260506211514 | 22 | 151 | 0.0 | 0.0 | 0.00 | 0.00 | 0.00 | 56 | 1016.1 |
| 20260506210037 | 15 | 359 | 11.3 | 32.2 | 0.00 | 0.08 | 0.05 | 33 | 1019.6 |
| 20260506210014 | 22 | 136 | 0.0 | 0.0 | 0.00 | 0.00 | 0.00 | 57 | 1016.1 |
| 20260506204547 | 15 | 338 | 11.3 | 20.9 | 0.00 | 0.08 | 0.05 | 35 | 1019.8 |
| 20260506204506 | 22 | 135 | 0.0 | 0.0 | 0.00 | 0.00 | 0.00 | 57 | 1016.4 |
| 20260506203032 | 15 | 13 | 8.0 | 20.9 | 0.00 | 0.08 | 0.05 | 33 | 1020.0 |
| 20260506203002 | 22 | 134 | 0.0 | 0.0 | 0.00 | 0.00 | 0.00 | 58 | 1016.4 |
| 20260506201534 | 14 | 55 | 4.8 | 22.5 | 0.00 | 0.08 | 0.05 | 34 | 1020.0 |
| 20260506201502 | 22 | 141 | 0.0 | 0.0 | 0.00 | 0.00 | 0.00 | 59 | 1016.7 |
| 20260506200100 | 22 | 168 | 0.0 | 0.0 | 0.00 | 0.00 | 0.00 | 59 | 1016.8 |
| 20260506200028 | 14 | 8 | 4.8 | 24.1 | 0.00 | 0.08 | 0.05 | 34 | 1020.2 |
| 20260506194605 | 21 | 170 | 0.0 | 11.3 | 0.00 | 0.00 | 0.00 | 61 | 1016.9 |
| 20260506194527 | 13 | 56 | 6.4 | 19.3 | 0.00 | 0.08 | 0.05 | 37 | 1020.2 |
| 20260506193059 | 21 | 124 | 0.0 | 4.8 | 0.00 | 0.00 | 0.00 | 61 | 1017.0 |
| 20260506193025 | 13 | 359 | 9.7 | 19.3 | 0.00 | 0.08 | 0.05 | 35 | 1020.4 |
| 20260506191555 | 21 | 166 | 0.0 | 11.3 | 0.00 | 0.00 | 0.00 | 61 | 1017.2 |
| 20260506191526 | 13 | 359 | 14.5 | 27.4 | 0.00 | 0.08 | 0.05 | 34 | 1020.3 |
| 20260506190053 | 20 | 146 | 1.6 | 11.3 | 0.00 | 0.00 | 0.00 | 65 | 1017.3 |
| 20260506190023 | 13 | 350 | 8.0 | 22.5 | 0.00 | 0.08 | 0.05 | 36 | 1020.5 |
| 20260506184556 | 21 | 142 | 0.0 | 1.6 | 0.00 | 0.00 | 0.00 | 64 | 1017.5 |
| 20260506184522 | 13 | 359 | 9.7 | 17.7 | 0.00 | 0.08 | 0.05 | 36 | 1020.5 |
| 20260506183100 | 21 | 132 | 0.0 | 3.2 | 0.00 | 0.00 | 0.00 | 62 | 1017.6 |
| 20260506183021 | 13 | 359 | 9.7 | 20.9 | 0.00 | 0.08 | 0.05 | 36 | 1020.8 |
| 20260506181551 | 21 | 157 | 0.0 | 0.0 | 0.00 | 0.00 | 0.00 | 62 | 1017.8 |
| 20260506181525 | 12 | 359 | 4.8 | 17.7 | 0.00 | 0.08 | 0.05 | 36 | 1021.1 |
| 20260506180051 | 21 | 155 | 0.0 | 0.0 | 0.00 | 0.00 | 0.00 | 61 | 1017.8 |
| 20260506180017 | 12 | 359 | 8.0 | 19.3 | 0.00 | 0.08 | 0.05 | 37 | 1021.1 |
| 20260506174548 | 21 | 155 | 0.0 | 0.0 | 0.00 | 0.00 | 0.00 | 61 | 1017.8 |
| 20260506174517 | 12 | 52 | 6.4 | 22.5 | 0.00 | 0.08 | 0.05 | 38 | 1021.3 |
| 20260506173048 | 21 | 140 | 0.0 | 4.8 | 0.00 | 0.00 | 0.00 | 61 | 1017.8 |
| 20260506173015 | 12 | 359 | 16.1 | 24.1 | 0.00 | 0.08 | 0.05 | 36 | 1021.4 |
| 20260506171553 | 20 | 142 | 0.0 | 0.0 | 0.00 | 0.00 | 0.00 | 62 | 1018.0 |
| 20260506171525 | 12 | 328 | 6.4 | 25.7 | 0.00 | 0.08 | 0.05 | 38 | 1021.3 |
| 20260506170040 | 20 | 112 | 0.0 | 0.0 | 0.00 | 0.00 | 0.00 | 64 | 1017.9 |
| 20260506170014 | 12 | 359 | 6.4 | 20.9 | 0.00 | 0.08 | 0.05 | 40 | 1021.4 |
| 20260506164536 | 19 | 117 | 0.0 | 1.6 | 0.00 | 0.00 | 0.00 | 65 | 1017.7 |
| 20260506164514 | 12 | 359 | 3.2 | 24.1 | 0.00 | 0.08 | 0.05 | 41 | 1021.5 |
| 20260506163040 | 18 | 144 | 0.0 | 6.4 | 0.00 | 0.00 | 0.00 | 68 | 1017.9 |
| 20260506163011 | 12 | 359 | 11.3 | 20.9 | 0.00 | 0.08 | 0.05 | 39 | 1021.4 |
| 20260506161529 | 17 | 128 | 0.0 | 6.4 | 0.00 | 0.00 | 0.00 | 70 | 1017.8 |
| 20260506161510 | 12 | 359 | 9.7 | 24.1 | 0.00 | 0.08 | 0.05 | 40 | 1021.4 |
| 20260506160023 | 17 | 143 | 0.0 | 9.7 | 0.00 | 0.00 | 0.00 | 74 | 1017.8 |
| 20260506160006 | 12 | 359 | 16.1 | 29.0 | 0.00 | 0.08 | 0.05 | 41 | 1021.1 |
| 20260506154520 | 16 | 140 | 0.0 | 0.0 | 0.00 | 0.00 | 0.00 | 76 | 1017.8 |
| 20260506154505 | 11 | 359 | 12.9 | 20.9 | 0.00 | 0.10 | 0.05 | 42 | 1020.8 |
| 20260506153018 | 16 | 154 | 0.0 | 0.0 | 0.00 | 0.00 | 0.00 | 76 | 1017.9 |
| 20260506153001 | 11 | 359 | 6.4 | 27.4 | 0.00 | 0.10 | 0.05 | 47 | 1020.9 |
| 20260506151610 | 11 | 39 | 11.3 | 24.1 | 0.00 | 0.10 | 0.05 | 43 | 1020.9 |
| 20260506151529 | 16 | 154 | 0.0 | 0.0 | 0.00 | 0.00 | 0.00 | 77 | 1017.8 |
| 20260506150057 | 11 | 33 | 9.7 | 19.3 | 0.00 | 0.10 | 0.05 | 51 | 1020.9 |
| 20260506150012 | 15 | 155 | 0.0 | 1.6 | 0.00 | 0.00 | 0.00 | 77 | 1017.9 |
| 20260506144603 | 10 | 37 | 8.0 | 16.1 | 0.00 | 0.33 | 0.05 | 54 | 1020.9 |
| 20260506144510 | 15 | 155 | 0.0 | 1.6 | 0.00 | 0.00 | 0.00 | 79 | 1018.0 |
| 20260506143055 | 10 | 343 | 8.0 | 14.5 | 0.00 | 0.33 | 0.05 | 54 | 1020.9 |
| 20260506143007 | 14 | 155 | 0.0 | 1.6 | 0.00 | 0.00 | 0.00 | 80 | 1017.8 |
| 20260506141549 | 10 | 354 | 8.0 | 14.5 | 0.00 | 0.33 | 0.05 | 56 | 1020.7 |
| 20260506141506 | 13 | 155 | 0.0 | 1.6 | 0.00 | 0.00 | 0.00 | 82 | 1017.7 |
| 20260506140053 | 9 | 290 | 6.4 | 12.9 | 0.00 | 0.33 | 0.05 | 59 | 1020.6 |
| 20260506140005 | 12 | 155 | 0.0 | 0.0 | 0.00 | 0.00 | 0.00 | 83 | 1017.5 |
| 20260506134544 | 9 | 38 | 4.8 | 9.7 | 0.00 | 0.64 | 0.05 | 61 | 1020.3 |
| 20260506134504 | 12 | 155 | 0.0 | 0.0 | 0.00 | 0.00 | 0.00 | 85 | 1017.5 |
| 20260506133043 | 9 | 322 | 6.4 | 12.9 | 0.00 | 0.64 | 0.05 | 60 | 1020.2 |
| 20260506133003 | 11 | 155 | 0.0 | 0.0 | 0.00 | 0.00 | 0.00 | 87 | 1017.4 |
| 20260506131601 | 11 | 155 | 0.0 | 0.0 | 0.00 | 0.00 | 0.00 | 87 | 1017.2 |
| 20260506131539 | 9 | 345 | 6.4 | 14.5 | 0.00 | 0.64 | 0.05 | 62 | 1019.8 |
| 20260506130100 | 11 | 155 | 0.0 | 0.0 | 0.00 | 0.00 | 0.00 | 87 | 1017.1 |
| 20260506130037 | 8 | 306 | 4.8 | 12.9 | 0.00 | 0.64 | 0.05 | 68 | 1019.5 |
| 20260506124558 | 11 | 155 | 0.0 | 0.0 | 0.00 | 0.00 | 0.00 | 86 | 1016.8 |
| 20260506124535 | 8 | 337 | 1.6 | 8.0 | 0.00 | 0.76 | 0.05 | 75 | 1019.5 |
| 20260506123056 | 12 | 155 | 0.0 | 0.0 | 0.00 | 0.00 | 0.00 | 86 | 1016.6 |
| 20260506123033 | 7 | 354 | 3.2 | 6.4 | 0.00 | 0.76 | 0.05 | 82 | 1018.9 |
| 20260506121554 | 12 | 155 | 0.0 | 0.0 | 0.00 | 0.00 | 0.00 | 86 | 1016.6 |
| 20260506121531 | 7 | 214 | 0.0 | 3.2 | 0.00 | 0.76 | 0.05 | 86 | 1018.8 |
| 20260506120053 | 12 | 155 | 0.0 | 0.0 | 0.00 | 0.00 | 0.00 | 86 | 1016.7 |
| 20260506120032 | 6 | 204 | 0.0 | 0.0 | 0.00 | 0.76 | 0.05 | 86 | 1018.4 |
| 20260506114558 | 12 | 155 | 0.0 | 0.0 | 0.00 | 0.00 | 0.00 | 86 | 1016.6 |
| 20260506114539 | 7 | 359 | 0.0 | 0.0 | 0.00 | 0.79 | 0.05 | 85 | 1018.0 |
| 20260506113057 | 12 | 155 | 0.0 | 0.0 | 0.00 | 0.00 | 0.00 | 86 | 1016.5 |
| 20260506113024 | 7 | 214 | 0.0 | 0.0 | 0.00 | 0.79 | 0.05 | 85 | 1017.8 |
| 20260506111551 | 12 | 155 | 0.0 | 0.0 | 0.00 | 0.00 | 0.00 | 87 | 1016.5 |
| 20260506111523 | 7 | 359 | 0.0 | 1.6 | 0.00 | 0.79 | 0.05 | 85 | 1017.9 |
| 20260506110046 | 12 | 155 | 0.0 | 0.0 | 0.00 | 0.00 | 0.00 | 87 | 1016.6 |
| 20260506110024 | 7 | 216 | 0.0 | 1.6 | 0.00 | 0.79 | 0.05 | 84 | 1017.9 |
| 20260506104553 | 13 | 155 | 0.0 | 0.0 | 0.00 | 0.03 | 0.00 | 87 | 1016.7 |
| 20260506104522 | 7 | 213 | 1.6 | 6.4 | 0.00 | 0.79 | 0.05 | 83 | 1018.1 |
| 20260506103043 | 13 | 155 | 0.0 | 0.0 | 0.00 | 0.03 | 0.00 | 87 | 1016.6 |
| 20260506103021 | 7 | 218 | 1.6 | 6.4 | 0.00 | 0.79 | 0.05 | 82 | 1018.0 |
| 20260506101549 | 13 | 155 | 0.0 | 0.0 | 0.00 | 0.03 | 0.00 | 88 | 1016.7 |
| 20260506101537 | 7 | 246 | 3.2 | 6.4 | 0.00 | 0.79 | 0.05 | 85 | 1018.0 |
| 20260506100040 | 13 | 155 | 0.0 | 0.0 | 0.00 | 0.03 | 0.00 | 88 | 1016.6 |
| 20260506100018 | 7 | 291 | 0.0 | 8.0 | 0.00 | 0.79 | 0.05 | 86 | 1017.6 |
| 20260506094539 | 13 | 155 | 0.0 | 0.0 | 0.00 | 0.28 | 0.00 | 88 | 1016.7 |
| 20260506094517 | 7 | 197 | 4.8 | 9.7 | 0.00 | 0.79 | 0.05 | 85 | 1017.0 |
| 20260506093038 | 13 | 155 | 0.0 | 0.0 | 0.00 | 0.28 | 0.00 | 89 | 1016.7 |
| 20260506093015 | 7 | 205 | 1.6 | 4.8 | 0.00 | 0.79 | 0.05 | 85 | 1017.1 |
| 20260506091537 | 13 | 155 | 0.0 | 0.0 | 0.00 | 0.28 | 0.00 | 89 | 1016.7 |
| 20260506091519 | 7 | 216 | 0.0 | 6.4 | 0.00 | 0.79 | 0.05 | 85 | 1017.2 |
| 20260506090036 | 13 | 155 | 0.0 | 0.0 | 0.00 | 0.28 | 0.00 | 88 | 1016.9 |
| 20260506090012 | 7 | 229 | 0.0 | 1.6 | 0.00 | 0.79 | 0.05 | 85 | 1017.2 |
| 20260506084540 | 13 | 155 | 0.0 | 0.0 | 0.00 | 0.28 | 0.00 | 87 | 1016.8 |
| 20260506084518 | 7 | 229 | 1.6 | 3.2 | 0.00 | 0.79 | 0.05 | 85 | 1017.2 |
| 20260506083033 | 13 | 155 | 0.0 | 0.0 | 0.00 | 0.28 | 0.00 | 87 | 1016.9 |
| 20260506083010 | 7 | 229 | 1.6 | 4.8 | 0.00 | 0.79 | 0.05 | 85 | 1017.2 |
| 20260506081530 | 13 | 155 | 0.0 | 0.0 | 0.00 | 0.28 | 0.00 | 87 | 1017.0 |
| 20260506081509 | 7 | 212 | 0.0 | 0.0 | 0.00 | 0.79 | 0.05 | 85 | 1017.0 |
| 20260506073025 | 14 | 154 | 0.0 | 0.0 | 0.00 | 0.28 | 0.00 | 85 | 1017.0 |
| 20260506073007 | 7 | 214 | 3.2 | 4.8 | 0.00 | 0.81 | 0.05 | 84 | 1016.3 |
| 20260506071523 | 14 | 154 | 0.0 | 0.0 | 0.00 | 0.28 | 0.00 | 85 | 1017.1 |
| 20260506071513 | 7 | 203 | 0.0 | 1.6 | 0.00 | 0.81 | 0.05 | 82 | 1016.1 |